RH
42 39 32 32 35 38 39 40 41 33 28 31 30 32 32 31 31 31 34 35 33 33 34 29 35 43 48 46 46 43 39 34 26 22 19 20 22 22 19 22 21 16 15 14
46 32 29 33 32 32 38 44 42 40 35 35 37 38 36 33 28 27 32 34 29 30 42 45 56 54 49 48 46 39 30 25 22 21 23 25 29 27 21 21 26 25 21 17
48 28 33 31 34 38 41 38 38 40 40 40 39 37 35 33 33 32 33 35 34 42 38 48 56 52 48 38 32 29 26 25 27 31 33 35 44 42 36 27 22 27 26 23
35 31 35 39 40 40 42 39 42 41 42 42 44 50 40 37 38 35 33 36 40 46 52 59 56 47 41 37 33 32 34 38 47 49 45 45 44 36 38 33 32 31 28 26
35 37 38 34 27 31 32 35 38 45 45 47 48 51 37 37 35 36 41 48 56 64 60 57 48 46 44 41 36 44 50 51 56 54 48 42 38 28 30 37 36 42 33 31
36 35 36 38 40 41 34 40 46 49 49 65 42 46 38 43 48 54 55 60 59 63 59 51 50 52 49 43 46 62 57 61 59 52 47 38 36 40 42 47 51 43 36 36
37 31 43 48 47 45 46 48 51 63 81 66 54 57 44 47 50 48 50 52 61 58 53 60 55 51 46 44 63 65 63 59 57 56 48 45 49 46 45 51 58 53 48 47
44 32 34 49 52 48 45 49 51 74 87 66 57 62 49 48 42 49 42 45 55 56 63 62 54 50 47 63 63 61 67 63 60 59 54 56 59 53 51 58 39 49 63 60
45 45 36 36 42 47 48 54 56 63 63 76 56 51 48 46 50 50 42 43 52 65 74 61 52 48 48 71 64 46 55 59 58 68 64 59 58 66 76 66 33 44 79 79
47 49 49 42 46 44 52 53 56 69 95 94 74 69 50 40 54 50 44 52 65 75 78 63 53 47 48 62 67 44 44 62 48 71 79 74 73 81 95 64 49 75 97 94
49 54 56 56 55 54 56 69 68 78 86 96 93 65 47 48 55 53 57 55 72 75 67 65 52 51 48 48 65 45 38 37 43 41 81 84 86 86 92 100 90 97 98 97
58 63 67 64 54 62 68 79 82 80 92 92 97 78 63 66 64 72 66 60 74 71 68 66 54 51 44 41 42 39 28 25 25 33 70 88 96 100 94 100 87 91 98 98
61 70 74 60 72 72 69 74 82 91 94 87 90 70 53 42 46 78 70 63 76 74 73 62 59 48 40 39 32 26 19 16 14 15 21 56 94 95 94 100 100 95 88 98
77 81 81 82 76 75 81 82 88 96 97 86 86 74 49 42 67 84 74 67 72 75 70 62 61 45 40 33 30 19 14 13 12 12 12 13 26 89 96 98 98 98 98 99
86 91 84 81 82 82 78 78 71 72 70 98 75 70 41 42 72 87 72 67 72 72 66 68 58 46 37 33 24 15 13 13 12 11 10 10 10 14 28 89 94 97 97 97
86 88 83 80 79 65 71 67 58 45 51 52 59 56 42 55 79 90 78 74 76 75 74 71 56 47 36 31 18 14 14 13 12 11 11 10 9 9 9 10 13 27 91 97
99 96 92 90 79 76 84 38 47 55 48 49 70 63 89 81 90 87 77 80 77 79 77 66 57 47 38 27 16 14 14 13 12 12 11 11 11 11 11 10 10 9 10 13
79 95 95 95 94 93 56 61 66 64 64 73 61 61 84 93 90 74 74 76 77 80 76 66 60 48 40 24 15 14 14 13 13 12 13 13 13 13 14 13 12 12 12 11
67 88 98 96 92 74 65 64 60 66 49 54 54 47 70 84 77 77 82 82 81 82 77 74 65 49 39 20 15 14 14 14 13 14 14 13 12 12 12 12 11 11 11 10
67 92 97 96 95 91 59 65 68 52 46 42 53 63 68 79 76 92 83 89 91 93 86 84 68 52 33 17 15 14 14 14 15 15 13 13 14 14 14 13 12 12 11 10
69 66 70 73 98 89 69 66 68 74 46 45 62 67 65 68 71 72 83 94 99 99 96 94 69 52 23 15 15 15 15 16 16 14 14 14 15 16 15 15 14 13 13 12
75 73 94 92 96 88 66 70 76 67 66 64 67 70 66 70 75 78 92 96 99 97 95 96 74 40 16 15 15 15 17 17 15 14 16 17 18 17 17 16 15 15 14 14
80 67 71 91 72 60 81 87 68 69 76 76 79 78 79 73 78 93 97 99 98 95 98 98 85 29 28 25 16 17 17 14 15 16 16 16 16 17 17 17 17 17 16 15
76 76 82 89 76 82 91 94 91 96 96 99 67 57 62 68 70 97 100 99 98 99 99 98 93 78 54 44 22 18 15 14 14 15 17 19 20 22 22 21 20 20 19 17
79 81 86 89 74 79 78 92 95 92 92 82 55 57 61 66 81 94 98 98 98 97 98 98 92 71 66 44 19 16 14 14 16 20 24 27 29 29 28 27 25 23 20 18
74 82 90 92 87 95 88 88 82 53 50 50 51 63 68 73 84 99 99 99 100 98 97 91 88 87 34 20 17 15 16 18 21 24 29 34 36 33 30 28 25 23 18 14
Wind_Speed
24 18 16 13 14 15 18 19 21 21 18 23 20 23 28 27 26 24 26 29 33 35 35 33 31 35 36 41 41 43 46 52 53 53 55 54 53 53 53 52 52 57 62 60
21 17 8 12 14 18 19 21 23 22 13 16 24 30 30 31 32 31 30 30 30 30 25 29 29 33 38 40 42 46 48 49 52 54 50 50 48 45 45 48 44 47 54 59
16 14 15 14 10 13 14 21 25 23 18 22 27 34 29 20 23 28 31 33 31 25 28 29 31 34 36 40 42 44 48 50 49 47 45 47 47 46 46 48 51 43 44 51
10 4 9 13 18 18 24 13 14 15 16 15 9 11 29 28 27 23 23 25 25 28 29 30 31 32 36 38 41 44 45 43 41 40 39 45 48 50 49 46 49 46 42 44
7 12 13 16 9 12 22 20 18 14 14 19 18 12 19 15 22 16 18 22 23 22 25 26 31 34 35 38 40 40 42 38 35 36 43 47 48 52 53 46 40 44 41 41
11 12 14 16 17 12 14 17 16 18 19 7 21 19 11 10 6 8 13 16 18 19 23 30 31 31 33 35 37 41 40 38 35 36 39 44 50 48 43 39 37 34 39 46
13 8 5 0 6 3 14 8 5 4 1 5 4 6 20 18 17 14 12 16 18 21 28 26 27 30 30 33 36 38 38 38 36 35 38 43 40 36 33 34 38 34 30 33
7 2 9 5 9 17 17 7 4 5 2 5 9 8 6 10 29 16 14 17 19 25 24 25 27 29 30 31 34 34 38 39 40 39 40 37 34 31 29 31 33 35 24 24
3 4 11 17 20 12 8 4 12 14 17 8 10 17 21 24 19 9 15 18 22 22 22 23 24 28 29 30 33 37 40 44 47 45 47 45 35 30 23 24 26 27 20 17
14 19 10 17 17 19 11 21 16 8 4 4 5 6 10 15 13 13 16 21 22 24 22 20 23 25 27 28 30 34 37 42 46 52 53 56 42 34 15 21 19 15 14 13
15 17 15 15 21 29 25 20 12 9 10 3 2 5 9 17 16 14 22 24 21 17 17 19 21 24 25 26 27 32 33 35 39 46 54 55 51 37 25 19 13 15 5 5
15 23 26 27 20 17 15 11 9 4 3 11 9 12 20 17 11 21 24 23 17 19 17 18 20 22 22 23 24 28 31 33 36 41 47 50 52 41 36 25 11 14 10 8
10 8 12 13 5 1 6 6 6 10 14 13 5 8 20 30 27 25 25 22 19 17 16 17 20 20 19 20 23 24 26 29 33 36 38 44 47 49 40 23 13 13 7 13
13 18 17 17 20 25 26 26 24 22 14 22 27 35 37 30 24 26 24 20 14 14 14 16 18 17 17 18 19 20 23 26 30 32 33 36 44 47 46 41 30 7 8 9
18 20 20 23 23 24 31 31 30 33 37 31 42 44 38 36 31 24 19 14 13 12 14 15 15 15 16 16 16 17 20 23 26 28 30 32 37 39 41 42 41 36 24 23
16 21 20 29 26 28 35 34 34 36 34 35 33 34 35 29 19 17 18 17 13 12 14 15 13 14 14 14 14 15 17 21 25 26 27 28 30 30 33 33 34 37 39 39
17 18 22 30 22 26 27 28 21 19 17 23 26 26 21 14 16 16 18 16 12 12 14 14 12 13 13 12 12 14 16 19 21 22 23 24 26 28 29 30 31 33 34 33
26 26 24 23 25 9 16 11 15 18 16 16 19 20 16 14 14 14 13 13 13 12 14 14 12 12 12 11 11 14 15 16 18 19 19 21 23 25 26 26 27 28 29 28
24 23 21 14 17 29 40 25 31 23 28 16 21 19 15 11 12 13 13 14 13 14 14 13 13 11 10 9 9 12 14 15 17 16 16 18 20 21 23 24 26 27 27 27
10 17 28 24 13 6 12 6 12 20 26 18 10 10 11 12 13 11 13 14 14 15 14 14 13 10 8 7 8 10 11 12 14 13 13 17 20 21 22 25 26 26 25 25
12 16 25 28 23 21 30 29 21 12 18 14 12 10 12 12 14 15 14 14 15 14 15 15 12 9 7 6 7 9 10 10 9 10 13 16 18 20 22 24 25 26 26 25
20 12 11 10 11 13 18 19 17 17 20 18 15 17 17 17 18 18 14 13 12 13 15 15 10 7 5 6 7 9 9 8 8 9 12 14 16 18 19 21 21 22 22 23
23 29 18 16 15 17 23 21 22 22 19 17 20 22 22 21 20 19 15 12 12 13 13 13 9 5 4 7 8 7 7 7 8 10 12 14 16 18 19 20 21 22 23 24
22 24 25 25 29 32 26 28 23 23 21 22 21 20 21 22 21 16 14 13 14 14 13 14 11 6 3 5 7 5 5 7 9 12 14 16 17 19 21 24 25 25 25 24
25 26 27 29 29 22 17 19 18 18 20 23 20 19 18 17 15 14 12 11 13 13 12 11 7 3 3 5 5 4 6 8 11 13 16 18 20 21 22 22 22 23 25 26
30 30 30 31 29 13 14 15 17 18 19 18 18 17 14 12 10 10 10 12 11 12 12 11 7 3 5 4 3 4 7 10 12 15 18 19 20 21 22 23 25 25 25 26
Wind_Direction
297 305 319 291 280 281 279 275 281 283 284 281 288 295 297 297 292 284 281 283 287 290 292 295 298 300 302 303 302 302 301 301 303 300 300 297 293 286 282 277 273 269 261 257
287 303 293 290 286 284 281 278 278 291 304 264 295 300 297 296 292 288 287 290 289 291 292 300 301 304 306 306 305 304 303 304 305 304 298 295 299 293 283 277 275 269 263 253
283 302 295 300 300 295 297 286 285 285 294 279 292 288 293 298 292 288 289 289 286 286 297 302 305 307 309 309 310 311 311 310 310 304 297 293 292 292 290 280 273 268 264 255
295 332 322 302 295 288 291 295 309 294 288 284 279 287 290 288 283 288 280 278 284 293 304 308 310 314 315 317 318 317 317 317 311 305 297 300 297 298 292 291 271 263 257 257
287 304 302 295 331 310 285 288 287 284 280 285 278 260 291 289 295 279 284 287 296 305 308 313 319 322 323 322 327 331 334 320 310 309 305 304 304 306 304 294 284 264 250 253
304 306 297 293 300 300 288 281 268 278 274 266 279 232 286 297 310 306 305 304 303 308 316 319 322 323 324 329 339 344 336 331 322 316 313 312 314 311 308 303 288 277 266 253
309 315 350 93 1 15 2 312 309 292 179 233 191 210 251 276 285 303 318 316 314 317 318 322 326 324 326 338 355 343 341 342 338 334 331 327 317 312 313 306 298 281 274 257
309 328 354 300 311 329 328 347 256 280 238 276 295 251 263 272 299 302 318 327 319 316 321 325 327 323 330 353 357 351 355 355 352 351 349 335 322 318 319 299 291 288 294 280
282 246 299 315 302 320 325 270 308 296 289 284 252 259 276 284 283 292 327 328 316 313 322 322 325 325 332 355 350 357 360 3 2 357 353 350 336 325 318 314 302 298 301 275
267 280 282 307 303 317 297 299 304 255 285 250 274 253 271 284 292 311 327 325 317 311 315 320 323 324 339 348 348 355 1 2 2 3 1 1 5 357 349 342 322 301 269 235
268 267 281 290 302 307 304 293 265 260 242 247 270 250 280 281 281 313 326 322 316 313 316 322 321 328 340 345 347 356 359 2 2 5 8 7 9 2 11 3 335 312 212 203
277 288 287 296 308 296 284 260 267 259 289 312 297 284 281 294 316 319 320 317 311 310 314 315 321 329 339 345 346 353 3 4 8 11 15 14 18 10 358 360 340 301 238 207
289 278 305 305 250 174 350 334 280 293 304 271 283 270 310 306 305 300 318 312 306 306 311 319 324 325 340 345 348 353 10 8 13 16 18 21 27 25 20 22 358 331 181 136
283 278 269 263 278 295 293 290 285 283 269 276 265 284 293 301 297 303 313 304 303 302 310 315 316 325 336 343 352 355 13 12 12 16 20 23 30 31 34 36 28 358 86 200
284 271 284 286 289 291 292 290 288 281 276 262 278 281 286 296 294 299 303 297 296 299 306 308 314 320 328 341 349 357 8 13 13 13 19 25 33 38 31 36 45 49 63 81
276 276 295 291 293 296 293 291 288 279 273 268 279 274 283 292 285 291 290 289 286 294 297 303 310 314 324 333 343 355 2 12 11 11 14 26 31 37 43 44 45 41 46 52
263 277 292 282 296 301 295 295 291 287 278 274 280 293 290 285 293 290 284 282 281 287 291 296 305 310 317 325 335 351 358 10 8 8 11 22 28 34 38 40 43 46 46 48
268 275 280 280 291 271 289 292 283 277 289 280 284 293 292 286 283 284 288 282 282 283 285 291 302 306 310 320 333 345 351 2 4 3 10 19 26 30 35 39 40 44 46 46
262 266 260 259 267 275 283 294 265 281 291 303 282 276 282 274 281 290 287 287 280 279 281 288 295 297 300 309 330 340 344 354 358 357 7 21 29 33 34 38 42 41 41 42
253 260 259 263 265 261 262 306 324 308 298 321 290 281 277 280 286 283 286 285 276 277 277 281 284 286 287 298 325 335 342 350 351 355 15 26 25 26 26 29 29 32 32 35
265 256 247 263 254 259 266 268 280 275 294 300 299 291 283 279 277 282 287 284 282 283 279 277 273 275 280 301 322 331 338 353 353 12 18 20 18 21 22 21 18 19 19 20
270 254 251 261 250 273 277 262 260 290 287 287 287 289 278 284 283 284 291 293 290 281 279 268 258 260 275 301 324 334 336 349 9 13 20 17 17 17 18 16 14 12 9 9
253 252 262 253 260 270 284 277 285 292 291 280 293 284 283 282 281 285 290 293 283 280 273 252 229 234 277 315 329 335 330 345 4 15 10 8 6 6 5 5 4 5 4 2
265 264 263 267 272 289 287 285 258 269 286 287 290 285 283 280 279 274 277 278 275 270 258 240 220 202 258 302 311 322 328 344 355 3 359 356 357 358 358 356 356 354 351 351
275 266 268 274 290 286 303 291 301 293 283 284 284 286 286 278 270 266 264 262 254 255 244 228 193 196 252 287 289 319 338 347 349 350 351 349 348 349 349 349 349 347 346 346
284 276 265 284 283 276 295 294 281 280 276 278 284 285 284 271 250 228 226 234 236 236 218 194 189 216 256 248 281 318 333 341 342 344 344 342 341 343 346 345 343 342 343 344